| time (UTC) | temp C | wind direction | speed KPH | gust KPH | rain 1hr cm | rain 24hr cm | rain mn cm | humidity % | barometer mb |
| 20260507061020 | 17 | 120 | 11.3 | 27.4 | 0.00 | 0.00 | 0.00 | 51 | 1013.9 |
| 20260507060059 | 16 | 117 | 14.5 | 29.0 | 0.00 | 0.00 | 0.00 | 52 | 1013.9 |
| 20260507055019 | 16 | 114 | 11.3 | 22.5 | 0.00 | 0.00 | 0.00 | 54 | 1013.8 |
| 20260507054019 | 16 | 118 | 9.7 | 20.9 | 0.00 | 0.00 | 0.00 | 56 | 1013.8 |
| 20260507053040 | 15 | 113 | 9.7 | 16.1 | 0.00 | 0.00 | 0.00 | 58 | 1013.9 |
| 20260507052100 | 15 | 104 | 9.7 | 17.7 | 0.00 | 0.00 | 0.00 | 58 | 1013.7 |
| 20260507051020 | 15 | 106 | 9.7 | 16.1 | 0.00 | 0.00 | 0.00 | 58 | 1013.7 |
| 20260507050022 | 14 | 118 | 9.7 | 17.7 | 0.00 | 0.00 | 0.00 | 58 | 1013.5 |
| 20260507045040 | 14 | 112 | 8.0 | 16.1 | 0.00 | 0.00 | 0.00 | 60 | 1013.6 |
| 20260507044039 | 13 | 92 | 8.0 | 14.5 | 0.00 | 0.00 | 0.00 | 61 | 1013.4 |
| 20260507043023 | 13 | 109 | 9.7 | 17.7 | 0.00 | 0.00 | 0.00 | 61 | 1013.3 |
| 20260507042040 | 13 | 105 | 11.3 | 17.7 | 0.00 | 0.00 | 0.00 | 61 | 1013.2 |
| 20260507041023 | 12 | 105 | 9.7 | 16.1 | 0.00 | 0.00 | 0.00 | 62 | 1013.2 |
| 20260507040018 | 12 | 78 | 9.7 | 16.1 | 0.00 | 0.00 | 0.00 | 63 | 1013.1 |
| 20260507035020 | 12 | 106 | 11.3 | 17.7 | 0.00 | 0.00 | 0.00 | 63 | 1013.0 |
| 20260507034021 | 12 | 99 | 11.3 | 16.1 | 0.00 | 0.00 | 0.00 | 62 | 1013.1 |
| 20260507033023 | 12 | 104 | 9.7 | 19.3 | 0.00 | 0.00 | 0.00 | 62 | 1013.1 |
| 20260507032021 | 12 | 105 | 11.3 | 16.1 | 0.00 | 0.00 | 0.00 | 58 | 1013.1 |
| 20260507031019 | 12 | 105 | 9.7 | 14.5 | 0.00 | 0.00 | 0.00 | 56 | 1013.0 |
| 20260507030022 | 12 | 85 | 8.0 | 16.1 | 0.00 | 0.00 | 0.00 | 55 | 1013.0 |
| 20260507025048 | 13 | 108 | 8.0 | 11.3 | 0.00 | 0.00 | 0.00 | 54 | 1012.9 |
| 20260507024021 | 13 | 128 | 8.0 | 14.5 | 0.00 | 0.00 | 0.00 | 53 | 1012.9 |
| 20260507023040 | 13 | 134 | 6.4 | 16.1 | 0.00 | 0.00 | 0.00 | 52 | 1012.9 |
| 20260507022020 | 13 | 133 | 9.7 | 16.1 | 0.00 | 0.00 | 0.00 | 51 | 1012.9 |
| 20260507021019 | 13 | 126 | 6.4 | 14.5 | 0.00 | 0.00 | 0.00 | 52 | 1012.9 |
| 20260507020039 | 13 | 87 | 6.4 | 11.3 | 0.00 | 0.00 | 0.00 | 52 | 1012.9 |
| 20260507015020 | 14 | 128 | 8.0 | 14.5 | 0.00 | 0.00 | 0.00 | 51 | 1012.7 |
| 20260507014039 | 14 | 144 | 8.0 | 12.9 | 0.00 | 0.00 | 0.00 | 51 | 1012.7 |
| 20260507013021 | 14 | 160 | 9.7 | 16.1 | 0.00 | 0.00 | 0.00 | 51 | 1012.7 |
| 20260507012025 | 14 | 146 | 9.7 | 19.3 | 0.00 | 0.00 | 0.00 | 51 | 1012.7 |
| 20260507011020 | 14 | 141 | 9.7 | 19.3 | 0.00 | 0.00 | 0.00 | 51 | 1012.7 |
| 20260507010019 | 14 | 127 | 9.7 | 17.7 | 0.00 | 0.00 | 0.00 | 51 | 1012.8 |
| 20260507005039 | 14 | 129 | 8.0 | 14.5 | 0.00 | 0.00 | 0.00 | 51 | 1012.8 |
| 20260507004020 | 15 | 135 | 8.0 | 20.9 | 0.00 | 0.00 | 0.00 | 50 | 1012.7 |
| 20260507003020 | 15 | 133 | 8.0 | 14.5 | 0.00 | 0.00 | 0.00 | 49 | 1012.7 |
| 20260507002019 | 15 | 150 | 11.3 | 19.3 | 0.00 | 0.00 | 0.00 | 49 | 1012.7 |
| 20260507001040 | 15 | 149 | 11.3 | 20.9 | 0.00 | 0.00 | 0.00 | 48 | 1012.7 |
| 20260507000019 | 15 | 145 | 12.9 | 24.1 | 0.00 | 0.00 | 0.00 | 48 | 1012.7 |
| 20260506235019 | 15 | 138 | 11.3 | 22.5 | 0.00 | 0.00 | 0.00 | 48 | 1012.7 |
| 20260506234019 | 15 | 142 | 11.3 | 20.9 | 0.00 | 0.00 | 0.00 | 48 | 1012.7 |
| 20260506233020 | 15 | 149 | 12.9 | 24.1 | 0.00 | 0.00 | 0.00 | 48 | 1012.6 |
| 20260506232019 | 15 | 143 | 12.9 | 24.1 | 0.00 | 0.00 | 0.00 | 49 | 1012.7 |
| 20260506231019 | 16 | 144 | 14.5 | 24.1 | 0.00 | 0.00 | 0.00 | 49 | 1012.7 |
| 20260506230040 | 16 | 143 | 12.9 | 27.4 | 0.00 | 0.00 | 0.00 | 50 | 1012.6 |
| 20260506225020 | 16 | 140 | 14.5 | 29.0 | 0.00 | 0.00 | 0.00 | 51 | 1012.6 |
| 20260506224019 | 16 | 150 | 14.5 | 27.4 | 0.00 | 0.00 | 0.00 | 52 | 1012.7 |
| 20260506223019 | 16 | 153 | 12.9 | 25.7 | 0.00 | 0.00 | 0.00 | 53 | 1012.7 |
| 20260506222020 | 16 | 156 | 14.5 | 29.0 | 0.00 | 0.00 | 0.00 | 54 | 1012.7 |
| 20260506221020 | 16 | 144 | 14.5 | 29.0 | 0.00 | 0.00 | 0.00 | 54 | 1012.6 |
| 20260506220021 | 16 | 147 | 16.1 | 27.4 | 0.00 | 0.00 | 0.00 | 54 | 1012.6 |
| 20260506215019 | 16 | 150 | 14.5 | 27.4 | 0.00 | 0.00 | 0.00 | 53 | 1012.5 |
| 20260506214020 | 16 | 146 | 16.1 | 27.4 | 0.00 | 0.00 | 0.00 | 53 | 1012.6 |
| 20260506212020 | 17 | 147 | 17.7 | 30.6 | 0.00 | 0.00 | 0.00 | 52 | 1012.4 |
| 20260506211019 | 17 | 149 | 16.1 | 32.2 | 0.00 | 0.00 | 0.00 | 51 | 1012.4 |
| 20260506210020 | 17 | 140 | 19.3 | 32.2 | 0.00 | 0.00 | 0.00 | 51 | 1012.3 |
| 20260506205017 | 17 | 146 | 12.9 | 25.7 | 0.00 | 0.00 | 0.00 | 51 | 1012.3 |
| 20260506204037 | 17 | 134 | 11.3 | 29.0 | 0.00 | 0.00 | 0.00 | 50 | 1012.4 |
| 20260506203016 | 18 | 141 | 12.9 | 27.4 | 0.00 | 0.00 | 0.00 | 49 | 1012.3 |
| 20260506202016 | 18 | 126 | 14.5 | 27.4 | 0.00 | 0.00 | 0.00 | 48 | 1012.2 |
| 20260506201016 | 18 | 129 | 14.5 | 25.7 | 0.00 | 0.00 | 0.00 | 48 | 1012.3 |
| 20260506200016 | 18 | 150 | 11.3 | 22.5 | 0.00 | 0.00 | 0.00 | 48 | 1012.1 |
| 20260506195019 | 18 | 140 | 16.1 | 30.6 | 0.00 | 0.00 | 0.00 | 47 | 1012.0 |
| 20260506194016 | 18 | 128 | 12.9 | 25.7 | 0.00 | 0.00 | 0.00 | 47 | 1011.9 |
| 20260506193018 | 19 | 126 | 12.9 | 22.5 | 0.00 | 0.00 | 0.00 | 47 | 1011.9 |
| 20260506192037 | 19 | 133 | 11.3 | 22.5 | 0.00 | 0.00 | 0.00 | 46 | 1011.9 |
| 20260506191019 | 19 | 132 | 11.3 | 22.5 | 0.00 | 0.00 | 0.00 | 45 | 1011.8 |
| 20260506190017 | 20 | 149 | 12.9 | 30.6 | 0.00 | 0.00 | 0.00 | 45 | 1011.8 |
| 20260506185036 | 20 | 139 | 11.3 | 20.9 | 0.00 | 0.00 | 0.00 | 45 | 1011.5 |
| 20260506184017 | 20 | 144 | 11.3 | 25.7 | 0.00 | 0.00 | 0.00 | 44 | 1011.4 |
| 20260506183036 | 20 | 137 | 12.9 | 20.9 | 0.00 | 0.00 | 0.00 | 44 | 1011.3 |
| 20260506182015 | 20 | 142 | 12.9 | 27.4 | 0.00 | 0.00 | 0.00 | 44 | 1011.2 |
| 20260506181016 | 20 | 150 | 9.7 | 20.9 | 0.00 | 0.00 | 0.00 | 43 | 1011.1 |
| 20260506180017 | 20 | 156 | 11.3 | 20.9 | 0.00 | 0.00 | 0.00 | 43 | 1010.9 |
| 20260506175015 | 21 | 143 | 9.7 | 17.7 | 0.00 | 0.00 | 0.00 | 42 | 1010.9 |
| 20260506173016 | 21 | 139 | 8.0 | 14.5 | 0.00 | 0.00 | 0.00 | 40 | 1010.8 |
| 20260506172019 | 22 | 150 | 9.7 | 19.3 | 0.00 | 0.00 | 0.00 | 39 | 1010.7 |
| 20260506171019 | 22 | 153 | 9.7 | 20.9 | 0.00 | 0.00 | 0.00 | 38 | 1010.6 |
| 20260506170018 | 23 | 153 | 8.0 | 17.7 | 0.00 | 0.00 | 0.00 | 37 | 1010.6 |
| 20260506165036 | 23 | 158 | 11.3 | 25.7 | 0.00 | 0.00 | 0.00 | 36 | 1010.5 |
| 20260506164016 | 23 | 159 | 12.9 | 24.1 | 0.00 | 0.00 | 0.00 | 35 | 1010.5 |
| 20260506163019 | 24 | 160 | 11.3 | 27.4 | 0.00 | 0.00 | 0.00 | 35 | 1010.6 |
| 20260506162018 | 25 | 160 | 11.3 | 24.1 | 0.00 | 0.00 | 0.00 | 34 | 1010.4 |
| 20260506161020 | 25 | 157 | 9.7 | 17.7 | 0.00 | 0.00 | 0.00 | 34 | 1010.3 |
| 20260506160020 | 25 | 138 | 8.0 | 22.5 | 0.00 | 0.00 | 0.00 | 33 | 1010.4 |
| 20260506155019 | 25 | 143 | 8.0 | 17.7 | 0.00 | 0.00 | 0.00 | 33 | 1010.4 |
| 20260506154019 | 26 | 135 | 11.3 | 20.9 | 0.00 | 0.00 | 0.00 | 32 | 1010.4 |
| 20260506153020 | 26 | 143 | 11.3 | 22.5 | 0.00 | 0.00 | 0.00 | 31 | 1010.4 |
| 20260506152022 | 26 | 129 | 8.0 | 17.7 | 0.00 | 0.00 | 0.00 | 32 | 1010.4 |
| 20260506151020 | 26 | 168 | 9.7 | 24.1 | 0.00 | 0.00 | 0.00 | 32 | 1010.4 |
| 20260506150019 | 26 | 170 | 12.9 | 22.5 | 0.00 | 0.00 | 0.00 | 31 | 1010.4 |
| 20260506145018 | 26 | 161 | 9.7 | 20.9 | 0.00 | 0.00 | 0.00 | 31 | 1010.4 |
| 20260506144041 | 26 | 175 | 11.3 | 20.9 | 0.00 | 0.00 | 0.00 | 31 | 1010.5 |
| 20260506143019 | 26 | 171 | 12.9 | 25.7 | 0.00 | 0.00 | 0.00 | 31 | 1010.5 |
| 20260506142019 | 26 | 158 | 11.3 | 25.7 | 0.00 | 0.00 | 0.00 | 31 | 1010.6 |
| 20260506141039 | 27 | 177 | 12.9 | 24.1 | 0.00 | 0.00 | 0.00 | 31 | 1010.6 |
| 20260506140040 | 27 | 169 | 11.3 | 24.1 | 0.00 | 0.00 | 0.00 | 31 | 1010.5 |
| 20260506135039 | 27 | 176 | 12.9 | 25.7 | 0.00 | 0.00 | 0.00 | 31 | 1010.5 |
| 20260506134022 | 27 | 161 | 9.7 | 20.9 | 0.00 | 0.00 | 0.00 | 30 | 1010.6 |
| 20260506133018 | 27 | 161 | 11.3 | 19.3 | 0.00 | 0.00 | 0.00 | 31 | 1010.6 |
| 20260506132019 | 27 | 168 | 11.3 | 19.3 | 0.00 | 0.00 | 0.00 | 30 | 1010.6 |
| 20260506131019 | 27 | 183 | 11.3 | 22.5 | 0.00 | 0.00 | 0.00 | 30 | 1010.8 |
| 20260506130020 | 27 | 171 | 11.3 | 20.9 | 0.00 | 0.00 | 0.00 | 30 | 1010.7 |
| 20260506125040 | 27 | 159 | 9.7 | 20.9 | 0.00 | 0.00 | 0.00 | 30 | 1010.8 |
| 20260506124022 | 27 | 153 | 11.3 | 20.9 | 0.00 | 0.00 | 0.00 | 29 | 1010.9 |
| 20260506123102 | 26 | 172 | 11.3 | 19.3 | 0.00 | 0.00 | 0.00 | 30 | 1010.9 |
| 20260506122039 | 26 | 147 | 11.3 | 24.1 | 0.00 | 0.00 | 0.00 | 29 | 1011.1 |
| 20260506121020 | -17 | 0.0 | 0.0 | 0.00 | 0.00 | 0.00 | |||
| 20260506120020 | -17 | 0.0 | 0.0 | 0.00 | 0.00 | 0.00 | |||
| 20260506115021 | -17 | 0.0 | 0.0 | 0.00 | 0.00 | 0.00 | |||
| 20260506114020 | 26 | 152 | 12.9 | 20.9 | 0.00 | 0.00 | 0.00 | 27 | 1011.5 |
| 20260506113020 | 26 | 150 | 11.3 | 24.1 | 0.00 | 0.00 | 0.00 | 27 | 1011.5 |
| 20260506112021 | 26 | 149 | 9.7 | 24.1 | 0.00 | 0.00 | 0.00 | 28 | 1011.6 |
| 20260506111019 | 26 | 151 | 9.7 | 20.9 | 0.00 | 0.00 | 0.00 | 30 | 1011.6 |
| 20260506110019 | 26 | 141 | 11.3 | 24.1 | 0.00 | 0.00 | 0.00 | 32 | 1011.7 |
| 20260506105022 | 26 | 148 | 8.0 | 20.9 | 0.00 | 0.00 | 0.00 | 32 | 1011.6 |
| 20260506104023 | 26 | 142 | 11.3 | 20.9 | 0.00 | 0.00 | 0.00 | 32 | 1011.8 |
| 20260506103020 | 26 | 134 | 11.3 | 20.9 | 0.00 | 0.00 | 0.00 | 32 | 1011.8 |
| 20260506102019 | 26 | 177 | 11.3 | 22.5 | 0.00 | 0.00 | 0.00 | 33 | 1011.9 |
| 20260506101021 | 25 | 136 | 9.7 | 20.9 | 0.00 | 0.00 | 0.00 | 33 | 1012.0 |
| 20260506100021 | 25 | 138 | 9.7 | 17.7 | 0.00 | 0.00 | 0.00 | 34 | 1012.0 |
| 20260506095019 | 25 | 130 | 11.3 | 19.3 | 0.00 | 0.00 | 0.00 | 34 | 1012.1 |
| 20260506094020 | 24 | 133 | 11.3 | 20.9 | 0.00 | 0.00 | 0.00 | 35 | 1012.2 |
| 20260506093020 | 24 | 174 | 11.3 | 22.5 | 0.00 | 0.00 | 0.00 | 36 | 1012.1 |
| 20260506092020 | 24 | 127 | 8.0 | 16.1 | 0.00 | 0.00 | 0.00 | 36 | 1012.2 |
| 20260506091020 | 24 | 110 | 8.0 | 14.5 | 0.00 | 0.00 | 0.00 | 37 | 1012.3 |
| 20260506090021 | 23 | 147 | 9.7 | 16.1 | 0.00 | 0.00 | 0.00 | 38 | 1012.2 |
| 20260506085040 | 23 | 122 | 8.0 | 17.7 | 0.00 | 0.00 | 0.00 | 38 | 1012.3 |
| 20260506084019 | 22 | 141 | 8.0 | 19.3 | 0.00 | 0.00 | 0.00 | 40 | 1012.2 |
| 20260506083019 | 22 | 130 | 11.3 | 20.9 | 0.00 | 0.00 | 0.00 | 40 | 1012.2 |
| 20260506082021 | 21 | 116 | 11.3 | 20.9 | 0.00 | 0.00 | 0.00 | 41 | 1012.3 |
| 20260506081020 | 21 | 137 | 11.3 | 19.3 | 0.00 | 0.00 | 0.00 | 42 | 1012.2 |
| 20260506073021 | 19 | 119 | 11.3 | 19.3 | 0.00 | 0.00 | 0.00 | 45 | 1012.3 |
| 20260506072046 | 19 | 121 | 9.7 | 17.7 | 0.00 | 0.00 | 0.00 | 46 | 1012.3 |
| 20260506071020 | 18 | 127 | 9.7 | 17.7 | 0.00 | 0.00 | 0.00 | 46 | 1012.3 |
| 20260506062020 | 16 | 124 | 6.4 | 14.5 | 0.00 | 0.00 | 0.00 | 50 | 1012.4 |